| time (UTC) | temp F | wind direction | speed knots | gust knots | rain 1hr in | rain 24hr in | rain mn in | humidity % | barometer mb |
| 20260507211604 | 54 | 135 | 0.0 | 0.0 | 0.00 | 0.00 | 0.00 | 79 | 1017.3 |
| 20260507205604 | 54 | 315 | 0.0 | 0.0 | 0.00 | 0.00 | 0.00 | 80 | 1017.3 |
| 20260507205104 | 54 | 315 | 0.0 | 0.0 | 0.00 | 0.00 | 0.00 | 79 | 1017.3 |
| 20260507204604 | 54 | 315 | 0.0 | 0.0 | 0.00 | 0.00 | 0.00 | 77 | 1017.3 |
| 20260507204104 | 54 | 310 | 0.0 | 0.0 | 0.00 | 0.00 | 0.00 | 76 | 1017.2 |
| 20260507203604 | 54 | 309 | 0.0 | 0.0 | 0.00 | 0.00 | 0.00 | 76 | 1017.0 |
| 20260507203104 | 54 | 309 | 0.0 | 0.0 | 0.00 | 0.00 | 0.00 | 76 | 1017.0 |
| 20260507202604 | 55 | 309 | 0.0 | 0.0 | 0.00 | 0.00 | 0.00 | 76 | 1017.2 |
| 20260507201605 | 55 | 315 | 0.0 | 0.0 | 0.00 | 0.00 | 0.00 | 77 | 1017.2 |
| 20260507201105 | 55 | 315 | 0.0 | 0.0 | 0.00 | 0.00 | 0.00 | 77 | 1016.9 |
| 20260507200604 | 55 | 315 | 0.0 | 0.0 | 0.00 | 0.00 | 0.00 | 76 | 1016.7 |
| 20260507200105 | 55 | 304 | 0.0 | 0.0 | 0.00 | 0.00 | 0.00 | 74 | 1016.9 |
| 20260507195606 | 55 | 336 | 0.0 | 0.0 | 0.00 | 0.00 | 0.00 | 74 | 1016.6 |
| 20260507195104 | 55 | 336 | 0.0 | 0.0 | 0.00 | 0.00 | 0.00 | 74 | 1016.7 |
| 20260507194606 | 55 | 336 | 0.0 | 0.0 | 0.00 | 0.00 | 0.00 | 74 | 1016.6 |
| 20260507194104 | 55 | 336 | 0.0 | 0.0 | 0.00 | 0.00 | 0.00 | 72 | 1016.6 |
| 20260507193605 | 56 | 336 | 0.0 | 0.0 | 0.00 | 0.00 | 0.00 | 72 | 1016.3 |
| 20260507193105 | 56 | 336 | 0.0 | 0.0 | 0.00 | 0.00 | 0.00 | 70 | 1016.6 |
| 20260507192604 | 56 | 309 | 0.0 | 0.0 | 0.00 | 0.00 | 0.00 | 70 | 1016.6 |
| 20260507192104 | 56 | 309 | 0.0 | 0.9 | 0.00 | 0.00 | 0.00 | 68 | 1016.6 |
| 20260507191604 | 56 | 322 | 0.9 | 0.9 | 0.00 | 0.00 | 0.00 | 67 | 1016.6 |
| 20260507191106 | 56 | 321 | 0.0 | 0.0 | 0.00 | 0.00 | 0.00 | 67 | 1016.6 |
| 20260507190604 | 56 | 326 | 0.0 | 0.0 | 0.00 | 0.00 | 0.00 | 67 | 1016.6 |
| 20260507190104 | 56 | 297 | 0.0 | 0.0 | 0.00 | 0.00 | 0.00 | 66 | 1016.5 |
| 20260507185105 | 56 | 297 | 0.0 | 0.0 | 0.00 | 0.00 | 0.00 | 65 | 1016.5 |
| 20260507184604 | 57 | 297 | 0.0 | 0.0 | 0.00 | 0.00 | 0.00 | 65 | 1016.3 |
| 20260507184105 | 57 | 297 | 0.0 | 0.0 | 0.00 | 0.00 | 0.00 | 67 | 1016.4 |
| 20260507183104 | 57 | 300 | 0.0 | 0.0 | 0.00 | 0.00 | 0.00 | 65 | 1016.3 |
| 20260507182604 | 57 | 292 | 0.0 | 0.0 | 0.00 | 0.00 | 0.00 | 66 | 1016.4 |
| 20260507181604 | 58 | 298 | 0.0 | 0.9 | 0.00 | 0.00 | 0.00 | 62 | 1016.5 |
| 20260507181104 | 58 | 308 | 0.0 | 0.0 | 0.00 | 0.00 | 0.00 | 61 | 1016.3 |
| 20260507180607 | 58 | 309 | 0.0 | 0.9 | 0.00 | 0.00 | 0.00 | 62 | 1016.5 |
| 20260507180104 | 58 | 317 | 0.0 | 0.0 | 0.00 | 0.00 | 0.00 | 63 | 1016.3 |
| 20260507175104 | 58 | 309 | 0.0 | 0.9 | 0.00 | 0.00 | 0.00 | 61 | 1016.5 |
| 20260507173105 | 58 | 288 | 0.0 | 0.9 | 0.00 | 0.00 | 0.00 | 60 | 1016.4 |
| 20260507172606 | 58 | 299 | 0.0 | 0.9 | 0.00 | 0.00 | 0.00 | 60 | 1016.3 |
| 20260507172106 | 58 | 283 | 0.0 | 0.0 | 0.00 | 0.00 | 0.00 | 58 | 1016.2 |
| 20260507171104 | 59 | 300 | 0.0 | 0.9 | 0.00 | 0.00 | 0.00 | 59 | 1016.5 |
| 20260507170605 | 59 | 228 | 0.0 | 0.9 | 0.00 | 0.00 | 0.00 | 59 | 1016.3 |
| 20260507170104 | 58 | 314 | 0.9 | 1.7 | 0.00 | 0.00 | 0.00 | 59 | 1016.3 |
| 20260507165604 | 59 | 310 | 0.0 | 0.9 | 0.00 | 0.00 | 0.00 | 57 | 1016.4 |
| 20260507165105 | 59 | 333 | 0.0 | 0.9 | 0.00 | 0.00 | 0.00 | 57 | 1016.3 |
| 20260507164605 | 59 | 220 | 0.0 | 1.7 | 0.00 | 0.00 | 0.00 | 54 | 1016.3 |
| 20260507164105 | 59 | 139 | 0.9 | 1.7 | 0.00 | 0.00 | 0.00 | 53 | 1016.3 |
| 20260507163604 | 59 | 144 | 0.9 | 1.7 | 0.00 | 0.00 | 0.00 | 53 | 1016.3 |
| 20260507163104 | 59 | 128 | 1.7 | 2.6 | 0.00 | 0.00 | 0.00 | 53 | 1016.3 |
| 20260507162604 | 59 | 90 | 0.9 | 0.9 | 0.00 | 0.00 | 0.00 | 54 | 1016.3 |
| 20260507162104 | 59 | 112 | 0.0 | 1.7 | 0.00 | 0.00 | 0.00 | 55 | 1016.5 |
| 20260507161604 | 59 | 87 | 0.9 | 1.7 | 0.00 | 0.00 | 0.00 | 53 | 1016.3 |
| 20260507161104 | 59 | 160 | 0.9 | 1.7 | 0.00 | 0.00 | 0.00 | 52 | 1016.3 |
| 20260507160105 | 59 | 85 | 0.9 | 2.6 | 0.00 | 0.00 | 0.00 | 53 | 1016.3 |
| 20260507155604 | 59 | 139 | 0.9 | 2.6 | 0.00 | 0.00 | 0.00 | 53 | 1016.3 |
| 20260507155104 | 59 | 120 | 0.9 | 2.6 | 0.00 | 0.00 | 0.00 | 53 | 1016.3 |
| 20260507154605 | 59 | 80 | 0.9 | 2.6 | 0.00 | 0.00 | 0.00 | 52 | 1016.3 |
| 20260507154105 | 59 | 147 | 0.9 | 4.3 | 0.00 | 0.00 | 0.00 | 53 | 1016.3 |
| 20260507153604 | 59 | 131 | 1.7 | 4.3 | 0.00 | 0.00 | 0.00 | 52 | 1016.3 |
| 20260507153104 | 59 | 87 | 0.9 | 1.7 | 0.00 | 0.00 | 0.00 | 52 | 1016.3 |
| 20260507151604 | 59 | 203 | 0.9 | 2.6 | 0.00 | 0.00 | 0.00 | 53 | 1016.5 |
| 20260507151104 | 59 | 84 | 1.7 | 2.6 | 0.00 | 0.00 | 0.00 | 53 | 1016.3 |
| 20260507150604 | 59 | 142 | 0.9 | 2.6 | 0.00 | 0.00 | 0.00 | 52 | 1016.2 |
| 20260507150104 | 59 | 356 | 0.0 | 1.7 | 0.00 | 0.00 | 0.00 | 54 | 1016.0 |
| 20260507145604 | 60 | 276 | 0.0 | 1.7 | 0.00 | 0.00 | 0.00 | 54 | 1016.0 |
| 20260507145104 | 60 | 96 | 0.9 | 1.7 | 0.00 | 0.00 | 0.00 | 54 | 1016.3 |
| 20260507144604 | 60 | 87 | 0.0 | 1.7 | 0.00 | 0.00 | 0.00 | 55 | 1016.3 |
| 20260507144104 | 60 | 287 | 0.9 | 1.7 | 0.00 | 0.00 | 0.00 | 54 | 1016.2 |
| 20260507143604 | 59 | 322 | 0.0 | 1.7 | 0.00 | 0.00 | 0.00 | 55 | 1016.3 |
| 20260507142104 | 59 | 310 | 1.7 | 2.6 | 0.00 | 0.00 | 0.00 | 56 | 1016.3 |
| 20260507141605 | 59 | 333 | 0.9 | 1.7 | 0.00 | 0.00 | 0.00 | 55 | 1016.4 |
| 20260507141105 | 59 | 316 | 1.7 | 1.7 | 0.00 | 0.00 | 0.00 | 57 | 1016.3 |
| 20260507140604 | 59 | 304 | 0.9 | 2.6 | 0.00 | 0.00 | 0.00 | 57 | 1016.3 |
| 20260507140105 | 59 | 303 | 0.9 | 1.7 | 0.00 | 0.00 | 0.00 | 56 | 1016.4 |
| 20260507135104 | 60 | 273 | 0.9 | 2.6 | 0.00 | 0.00 | 0.00 | 55 | 1016.6 |
| 20260507134605 | 60 | 190 | 0.9 | 2.6 | 0.00 | 0.00 | 0.00 | 55 | 1016.5 |
| 20260507134104 | 60 | 113 | 0.9 | 2.6 | 0.00 | 0.00 | 0.00 | 54 | 1016.4 |
| 20260507133605 | 60 | 264 | 0.9 | 1.7 | 0.00 | 0.00 | 0.00 | 56 | 1016.5 |
| 20260507132605 | 60 | 313 | 1.7 | 1.7 | 0.00 | 0.00 | 0.00 | 56 | 1016.6 |
| 20260507131604 | 60 | 271 | 0.9 | 1.7 | 0.00 | 0.00 | 0.00 | 56 | 1016.6 |
| 20260507131104 | 60 | 338 | 0.9 | 1.7 | 0.00 | 0.00 | 0.00 | 57 | 1016.3 |
| 20260507130604 | 60 | 313 | 0.0 | 1.7 | 0.00 | 0.00 | 0.00 | 56 | 1016.5 |
| 20260507130104 | 60 | 340 | 0.9 | 1.7 | 0.00 | 0.00 | 0.00 | 56 | 1016.6 |
| 20260507125605 | 60 | 303 | 0.9 | 1.7 | 0.00 | 0.00 | 0.00 | 58 | 1016.3 |
| 20260507125105 | 59 | 306 | 0.9 | 1.7 | 0.00 | 0.00 | 0.00 | 58 | 1016.4 |
| 20260507124604 | 59 | 313 | 0.9 | 2.6 | 0.00 | 0.00 | 0.00 | 57 | 1016.5 |
| 20260507124104 | 59 | 305 | 0.9 | 2.6 | 0.00 | 0.00 | 0.00 | 57 | 1016.6 |
| 20260507123604 | 60 | 305 | 0.9 | 1.7 | 0.00 | 0.00 | 0.00 | 55 | 1016.6 |
| 20260507123104 | 60 | 281 | 0.9 | 1.7 | 0.00 | 0.00 | 0.00 | 55 | 1016.3 |
| 20260507122604 | 60 | 308 | 0.0 | 1.7 | 0.00 | 0.00 | 0.00 | 55 | 1016.3 |
| 20260507121606 | 59 | 333 | 0.0 | 1.7 | 0.00 | 0.00 | 0.00 | 56 | 1016.4 |
| 20260507121105 | 59 | 307 | 1.7 | 2.6 | 0.00 | 0.00 | 0.00 | 53 | 1016.3 |
| 20260507120604 | 59 | 305 | 1.7 | 2.6 | 0.00 | 0.00 | 0.00 | 54 | 1016.3 |
| 20260507115604 | 59 | 326 | 1.7 | 4.3 | 0.00 | 0.00 | 0.00 | 57 | 1016.3 |
| 20260507115104 | 60 | 319 | 0.9 | 2.6 | 0.00 | 0.00 | 0.00 | 56 | 1016.3 |
| 20260507114604 | 59 | 298 | 0.9 | 1.7 | 0.00 | 0.00 | 0.00 | 56 | 1016.2 |
| 20260507114104 | 59 | 278 | 0.9 | 2.6 | 0.00 | 0.00 | 0.00 | 57 | 1016.3 |
| 20260507113604 | 60 | 286 | 0.9 | 2.6 | 0.00 | 0.00 | 0.00 | 55 | 1016.3 |
| 20260507113104 | 59 | 267 | 0.0 | 4.3 | 0.00 | 0.00 | 0.00 | 57 | 1016.2 |
| 20260507111604 | 59 | 314 | 1.7 | 4.3 | 0.00 | 0.00 | 0.00 | 57 | 1016.3 |
| 20260507111104 | 60 | 283 | 0.0 | 2.6 | 0.00 | 0.00 | 0.00 | 59 | 1016.3 |
| 20260507110604 | 60 | 8 | 0.9 | 2.6 | 0.00 | 0.00 | 0.00 | 58 | 1016.3 |
| 20260507105604 | 60 | 280 | 1.7 | 5.2 | 0.00 | 0.00 | 0.00 | 57 | 1016.3 |
| 20260507104607 | 62 | 295 | 1.7 | 5.2 | 0.00 | 0.00 | 0.00 | 52 | 1016.3 |
| 20260507104104 | 63 | 126 | 0.9 | 2.6 | 0.00 | 0.00 | 0.00 | 50 | 1016.3 |
| 20260507103104 | 63 | 278 | 0.0 | 2.6 | 0.00 | 0.00 | 0.00 | 53 | 1016.3 |
| 20260507102604 | 61 | 330 | 1.7 | 2.6 | 0.00 | 0.00 | 0.00 | 52 | 1016.3 |
| 20260507102105 | 62 | 319 | 1.7 | 2.6 | 0.00 | 0.00 | 0.00 | 54 | 1016.3 |
| 20260507101604 | 61 | 297 | 1.7 | 6.1 | 0.00 | 0.00 | 0.00 | 54 | 1016.3 |
| 20260507101104 | 62 | 311 | 2.6 | 4.3 | 0.00 | 0.00 | 0.00 | 52 | 1016.2 |
| 20260507100604 | 61 | 312 | 0.9 | 6.1 | 0.00 | 0.00 | 0.00 | 57 | 1016.3 |
| 20260507100104 | 60 | 327 | 2.6 | 7.8 | 0.00 | 0.00 | 0.00 | 57 | 1016.3 |
| 20260507095604 | 60 | 289 | 0.9 | 1.7 | 0.00 | 0.00 | 0.00 | 60 | 1016.3 |
| 20260507095105 | 59 | 291 | 0.9 | 2.6 | 0.00 | 0.00 | 0.00 | 58 | 1016.3 |
| 20260507094605 | 59 | 311 | 2.6 | 5.2 | 0.00 | 0.00 | 0.00 | 58 | 1016.0 |
| 20260507094105 | 62 | 333 | 1.7 | 5.2 | 0.00 | 0.00 | 0.00 | 53 | 1016.3 |
| 20260507093104 | 61 | 60 | 1.7 | 5.2 | 0.00 | 0.00 | 0.00 | 55 | 1016.0 |
| 20260507092604 | 62 | 296 | 1.7 | 4.3 | 0.00 | 0.00 | 0.00 | 60 | 1016.2 |
| 20260507092106 | 63 | 145 | 1.7 | 4.3 | 0.00 | 0.00 | 0.00 | 53 | 1016.0 |
| 20260507091604 | 61 | 208 | 0.9 | 7.0 | 0.00 | 0.00 | 0.00 | 58 | 1016.2 |
| 20260507091104 | 61 | 96 | 1.7 | 7.0 | 0.00 | 0.00 | 0.00 | 59 | 1016.2 |
| 20260507090604 | 59 | 271 | 0.9 | 4.3 | 0.00 | 0.00 | 0.00 | 61 | 1015.9 |
| 20260507085604 | 59 | 337 | 1.7 | 4.3 | 0.00 | 0.00 | 0.00 | 61 | 1016.3 |
| 20260507084604 | 58 | 303 | 0.9 | 4.3 | 0.00 | 0.00 | 0.00 | 62 | 1015.9 |
| 20260507084104 | 59 | 278 | 0.9 | 2.6 | 0.00 | 0.00 | 0.00 | 62 | 1015.9 |
| 20260507083605 | 57 | 290 | 1.7 | 2.6 | 0.00 | 0.00 | 0.00 | 64 | 1015.9 |
| 20260507082604 | 57 | 5 | 1.7 | 5.2 | 0.00 | 0.00 | 0.00 | 63 | 1015.9 |
| 20260507082104 | 57 | 328 | 1.7 | 2.6 | 0.00 | 0.00 | 0.00 | 66 | 1016.2 |
| 20260507081104 | 58 | 313 | 1.7 | 2.6 | 0.00 | 0.00 | 0.00 | 63 | 1016.0 |
| 20260507075605 | 56 | 325 | 0.9 | 4.3 | 0.00 | 0.00 | 0.00 | 67 | 1015.9 |
| 20260507075104 | 57 | 353 | 1.7 | 4.3 | 0.00 | 0.00 | 0.00 | 64 | 1015.9 |
| 20260507074604 | 58 | 283 | 0.9 | 1.7 | 0.00 | 0.00 | 0.00 | 64 | 1015.9 |
| 20260507074104 | 58 | 320 | 0.0 | 1.7 | 0.00 | 0.00 | 0.00 | 63 | 1015.9 |
| 20260507073104 | 55 | 308 | 0.9 | 4.3 | 0.00 | 0.00 | 0.00 | 68 | 1015.9 |
| 20260507072604 | 54 | 357 | 1.7 | 4.3 | 0.00 | 0.00 | 0.00 | 69 | 1015.6 |
| 20260507071604 | 54 | 319 | 0.9 | 5.2 | 0.00 | 0.00 | 0.00 | 70 | 1015.9 |
| 20260507070604 | 54 | 295 | 0.9 | 1.7 | 0.00 | 0.00 | 0.00 | 70 | 1015.9 |
| 20260507070106 | 53 | 304 | 0.9 | 1.7 | 0.00 | 0.00 | 0.00 | 72 | 1015.9 |
| 20260507065604 | 52 | 302 | 0.9 | 2.6 | 0.00 | 0.00 | 0.00 | 73 | 1015.8 |
| 20260507064105 | 53 | 299 | 0.0 | 1.7 | 0.00 | 0.00 | 0.00 | 71 | 1015.6 |
| 20260507063105 | 52 | 317 | 0.0 | 1.7 | 0.00 | 0.00 | 0.00 | 73 | 1015.6 |
| 20260507062604 | 53 | 239 | 0.0 | 1.7 | 0.00 | 0.00 | 0.00 | 74 | 1015.6 |
| 20260507061104 | 50 | 161 | 0.0 | 1.7 | 0.00 | 0.00 | 0.00 | 81 | 1015.5 |
| 20260507060604 | 49 | 215 | 0.9 | 1.7 | 0.00 | 0.00 | 0.00 | 83 | 1015.6 |
| 20260507060104 | 49 | 303 | 0.9 | 1.7 | 0.00 | 0.00 | 0.00 | 83 | 1015.3 |
| 20260507055104 | 49 | 311 | 0.0 | 1.7 | 0.00 | 0.00 | 0.00 | 84 | 1015.5 |
| 20260507054605 | 48 | 235 | 0.9 | 1.7 | 0.00 | 0.00 | 0.00 | 84 | 1015.2 |
| 20260507054104 | 48 | 274 | 0.9 | 1.7 | 0.00 | 0.00 | 0.00 | 84 | 1015.2 |
| 20260507053104 | 48 | 314 | 0.9 | 1.7 | 0.00 | 0.00 | 0.00 | 85 | 1015.3 |
| 20260507052604 | 48 | 92 | 0.0 | 1.7 | 0.00 | 0.00 | 0.00 | 86 | 1015.2 |
| 20260507051606 | 48 | 195 | 0.9 | 2.6 | 0.00 | 0.00 | 0.00 | 87 | 1015.2 |
| 20260507051104 | 48 | 229 | 0.9 | 1.7 | 0.00 | 0.00 | 0.00 | 87 | 1015.0 |
| 20260507050604 | 48 | 303 | 0.0 | 2.6 | 0.00 | 0.00 | 0.00 | 87 | 1014.9 |
| 20260507045604 | 48 | 143 | 0.0 | 0.9 | 0.00 | 0.00 | 0.00 | 87 | 1014.7 |
| 20260507044604 | 48 | 296 | 0.0 | 1.7 | 0.00 | 0.00 | 0.00 | 88 | 1014.6 |
| 20260507043604 | 48 | 285 | 0.9 | 1.7 | 0.00 | 0.00 | 0.00 | 88 | 1014.3 |
| 20260507043104 | 48 | 317 | 0.9 | 1.7 | 0.00 | 0.00 | 0.00 | 88 | 1014.6 |
| 20260507042604 | 48 | 217 | 0.0 | 1.7 | 0.00 | 0.00 | 0.00 | 88 | 1014.3 |
| 20260507042104 | 48 | 298 | 0.9 | 1.7 | 0.00 | 0.00 | 0.00 | 88 | 1014.2 |
| 20260507041606 | 48 | 8 | 0.0 | 1.7 | 0.00 | 0.00 | 0.00 | 88 | 1014.2 |
| 20260507040604 | 48 | 286 | 0.9 | 0.9 | 0.00 | 0.00 | 0.00 | 88 | 1014.2 |
| 20260507040104 | 48 | 204 | 0.0 | 1.7 | 0.00 | 0.00 | 0.00 | 88 | 1014.2 |
| 20260507035604 | 48 | 297 | 0.0 | 0.9 | 0.00 | 0.00 | 0.00 | 88 | 1014.2 |
| 20260507035104 | 48 | 310 | 0.0 | 0.9 | 0.00 | 0.00 | 0.00 | 88 | 1014.3 |
| 20260507034104 | 48 | 312 | 0.0 | 0.9 | 0.00 | 0.00 | 0.00 | 88 | 1014.2 |
| 20260507033104 | 48 | 301 | 0.0 | 1.7 | 0.00 | 0.00 | 0.00 | 88 | 1014.1 |
| 20260507032605 | 48 | 350 | 0.0 | 0.0 | 0.00 | 0.00 | 0.00 | 87 | 1014.2 |
| 20260507032104 | 48 | 352 | 0.0 | 0.9 | 0.00 | 0.00 | 0.00 | 87 | 1014.1 |
| 20260507031605 | 48 | 345 | 0.0 | 1.7 | 0.00 | 0.00 | 0.00 | 87 | 1014.0 |
| 20260507031104 | 48 | 321 | 0.9 | 1.7 | 0.00 | 0.00 | 0.00 | 87 | 1014.0 |
| 20260507030606 | 48 | 353 | 0.0 | 1.7 | 0.00 | 0.00 | 0.00 | 87 | 1014.2 |
| 20260507025604 | 49 | 326 | 0.0 | 0.0 | 0.00 | 0.00 | 0.00 | 87 | 1014.2 |
| 20260507025104 | 49 | 209 | 0.0 | 0.9 | 0.00 | 0.00 | 0.00 | 86 | 1014.0 |
| 20260507024605 | 49 | 341 | 0.0 | 0.9 | 0.00 | 0.00 | 0.00 | 86 | 1014.1 |
| 20260507024104 | 49 | 327 | 0.0 | 0.9 | 0.00 | 0.00 | 0.00 | 86 | 1014.1 |
| 20260507023604 | 49 | 313 | 0.0 | 1.7 | 0.00 | 0.00 | 0.00 | 86 | 1013.9 |
| 20260507023105 | 49 | 315 | 0.0 | 1.7 | 0.00 | 0.00 | 0.00 | 85 | 1013.9 |
| 20260507022604 | 49 | 339 | 0.9 | 1.7 | 0.00 | 0.00 | 0.00 | 85 | 1013.9 |
| 20260507022104 | 49 | 324 | 0.0 | 1.7 | 0.00 | 0.00 | 0.00 | 85 | 1013.9 |
| 20260507021604 | 49 | 287 | 0.0 | 1.7 | 0.00 | 0.00 | 0.00 | 85 | 1013.9 |
| 20260507021104 | 49 | 336 | 0.0 | 0.0 | 0.00 | 0.00 | 0.00 | 84 | 1013.9 |
| 20260507020104 | 49 | 343 | 0.0 | 1.7 | 0.00 | 0.00 | 0.00 | 84 | 1013.8 |
| 20260507015105 | 49 | 294 | 0.0 | 1.7 | 0.00 | 0.00 | 0.00 | 83 | 1013.5 |
| 20260507014604 | 49 | 305 | 0.0 | 0.9 | 0.00 | 0.00 | 0.00 | 83 | 1013.5 |
| 20260507014105 | 50 | 304 | 0.0 | 0.9 | 0.00 | 0.00 | 0.00 | 83 | 1013.5 |
| 20260507013605 | 50 | 354 | 0.0 | 0.9 | 0.00 | 0.00 | 0.00 | 83 | 1013.5 |
| 20260507013105 | 50 | 310 | 0.0 | 0.0 | 0.00 | 0.00 | 0.00 | 83 | 1013.5 |
| 20260507012604 | 50 | 322 | 0.0 | 0.0 | 0.00 | 0.00 | 0.00 | 83 | 1013.5 |
| 20260507011605 | 50 | 50 | 0.0 | 0.0 | 0.00 | 0.00 | 0.00 | 83 | 1013.5 |
| 20260507011104 | 50 | 352 | 0.0 | 0.9 | 0.00 | 0.00 | 0.00 | 83 | 1013.5 |
| 20260507010105 | 50 | 290 | 0.0 | 0.0 | 0.00 | 0.00 | 0.00 | 83 | 1013.5 |
| 20260507005604 | 50 | 217 | 0.0 | 0.0 | 0.00 | 0.00 | 0.00 | 84 | 1013.5 |
| 20260507005104 | 50 | 25 | 0.0 | 0.0 | 0.00 | 0.00 | 0.00 | 84 | 1013.5 |
| 20260507004605 | 50 | 25 | 0.0 | 0.0 | 0.00 | 0.00 | 0.00 | 84 | 1013.5 |
| 20260507004104 | 50 | 246 | 0.0 | 0.0 | 0.00 | 0.00 | 0.00 | 84 | 1013.5 |
| 20260507003605 | 50 | 246 | 0.0 | 0.0 | 0.00 | 0.00 | 0.00 | 85 | 1013.5 |
| 20260507003104 | 50 | 25 | 0.0 | 0.0 | 0.00 | 0.00 | 0.00 | 85 | 1013.5 |
| 20260507002104 | 50 | 328 | 0.0 | 0.9 | 0.00 | 0.00 | 0.00 | 82 | 1013.2 |
| 20260507000605 | 50 | 326 | 0.0 | 0.0 | 0.00 | 0.00 | 0.00 | 83 | 1013.3 |
| 20260507000104 | 50 | 326 | 0.0 | 0.0 | 0.00 | 0.00 | 0.00 | 83 | 1013.3 |
| 20260506235104 | 50 | 326 | 0.0 | 0.0 | 0.00 | 0.00 | 0.00 | 83 | 1013.3 |
| 20260506234606 | 50 | 326 | 0.0 | 0.0 | 0.00 | 0.00 | 0.00 | 83 | 1013.5 |
| 20260506234106 | 50 | 326 | 0.0 | 0.0 | 0.00 | 0.00 | 0.00 | 82 | 1013.5 |
| 20260506233604 | 50 | 326 | 0.0 | 0.0 | 0.00 | 0.00 | 0.00 | 82 | 1013.2 |
| 20260506233104 | 50 | 11 | 0.0 | 0.0 | 0.00 | 0.00 | 0.00 | 81 | 1013.4 |
| 20260506232605 | 50 | 315 | 0.0 | 0.0 | 0.00 | 0.00 | 0.00 | 81 | 1013.3 |
| 20260506232104 | 50 | 309 | 0.0 | 0.0 | 0.00 | 0.00 | 0.00 | 82 | 1013.2 |
| 20260506231604 | 50 | 309 | 0.0 | 0.0 | 0.00 | 0.00 | 0.00 | 82 | 1013.2 |
| 20260506231104 | 50 | 309 | 0.0 | 0.0 | 0.00 | 0.00 | 0.00 | 82 | 1013.2 |
| 20260506230604 | 50 | 230 | 0.0 | 0.0 | 0.00 | 0.00 | 0.00 | 82 | 1012.9 |
| 20260506225604 | 50 | 280 | 0.0 | 0.0 | 0.00 | 0.00 | 0.00 | 83 | 1013.0 |
| 20260506225104 | 50 | 309 | 0.0 | 0.0 | 0.00 | 0.00 | 0.00 | 82 | 1013.1 |
| 20260506224604 | 50 | 325 | 0.0 | 0.0 | 0.00 | 0.00 | 0.00 | 82 | 1013.2 |
| 20260506223604 | 50 | 315 | 0.0 | 0.0 | 0.00 | 0.00 | 0.00 | 81 | 1013.1 |
| 20260506223104 | 50 | 327 | 0.0 | 0.0 | 0.00 | 0.00 | 0.00 | 80 | 1013.0 |
| 20260506222604 | 50 | 320 | 0.0 | 0.0 | 0.00 | 0.00 | 0.00 | 81 | 1012.9 |
| 20260506222104 | 50 | 333 | 0.0 | 0.0 | 0.00 | 0.00 | 0.00 | 80 | 1012.9 |
| 20260506221604 | 50 | 333 | 0.0 | 0.0 | 0.00 | 0.00 | 0.00 | 80 | 1012.9 |
| 20260506221105 | 51 | 326 | 0.0 | 0.0 | 0.00 | 0.00 | 0.00 | 80 | 1012.9 |
| 20260506220604 | 51 | 326 | 0.0 | 0.0 | 0.00 | 0.00 | 0.00 | 79 | 1012.9 |
| 20260506220105 | 51 | 326 | 0.0 | 0.0 | 0.00 | 0.00 | 0.00 | 78 | 1012.9 |
| 20260506215604 | 51 | 318 | 0.0 | 0.0 | 0.00 | 0.00 | 0.00 | 77 | 1012.9 |
| 20260506214605 | 51 | 230 | 0.0 | 0.0 | 0.00 | 0.00 | 0.00 | 77 | 1012.9 |
| 20260506214106 | 51 | 230 | 0.0 | 0.0 | 0.00 | 0.00 | 0.00 | 77 | 1012.9 |
| 20260506213604 | 51 | 312 | 0.0 | 0.0 | 0.00 | 0.00 | 0.00 | 76 | 1012.9 |